IRIDIUM 19 [-] (24965 NORAD) Tracking and Keplerian Element Data

This shows tracking and keplerian element data for the satellite.

Feedback or suggestion? Click here.




ElementValue
Catalog24965
NameIRIDIUM 19 [-]
Epoch Orbit7627
Epoch Day97.22249121
Epoch Year2018
RAAN184.087
Inclination86.357
Eccentricity0.0015366
Argument of Perigee83.3282
Mean Anonmoly277.2194
Mean Motion16.46396628
Decay Rate0.15690194
L11 24965U 97056A 18097.22249121 .15690194 -15286-5 28846-3 0 9995
L22 24965 86.3570 184.0870 0015366 83.3282 277.2194 16.46396628 76277



Live tracking and technical data element details for IRIDIUM 19 [-] (NORAD 24965). IRIDIUM 19 [-] can be tracked NOW for your location showing map with azimuth and elevation plus other details from your city location.







IsCatalogInMostPopularTable: catalog: 24965, numindb: 523
Update: records affected: 1



GetName: 24965 IRIDIUM 19 [-]

Hit Count: updated at: Fri, 16 May 2025 11:53:34 GMT